Simultaneous Nadir Overpasses (SNOs) Predictions

Prediction of SNOs between LANDSAT-8 and NPP Satellite Orbit:

Table of predicted SNOs for the next 14.0 days since TLE Epoch: 2/10/2024
Index Date (LANDSAT-8) Time (LANDSAT-8) Lat,Lon (LANDSAT-8) SZA (LANDSAT-8 ) Date (NPP) Time (NPP) Lat,Lon (NPP) SZA (NPP ) Distance(km) Time Diff (sec)
1 02/11/2024 06:08:57 70.40, 84.56 84.59 02/11/2024 06:07:45 70.43, 83.96 84.67 22.78 72
2 02/11/2024 06:58:30 -70.12,-108.21 95.69 02/11/2024 06:58:23 -70.13,-108.25 95.67 2.26 7
3 02/11/2024 07:47:57 70.01, 59.29 84.21 02/11/2024 07:49:07 70.02, 59.23 84.21 2.32 70
4 02/13/2024 22:25:29 70.18,-159.87 83.50 02/13/2024 22:24:34 70.16,-159.83 83.49 2.57 55
5 02/13/2024 23:14:59 -70.07, 7.60 96.62 02/13/2024 23:15:16 -70.07, 7.63 96.63 1.05 17
6 02/14/2024 00:04:40 69.19, 174.05 82.55 02/14/2024 00:05:46 69.21, 176.19 82.47 84.35 66
7 02/16/2024 14:41:57 70.14, -44.04 82.55 02/16/2024 14:41:28 70.16, -44.06 82.57 1.80 29
8 02/16/2024 15:31:27 -70.03, 123.44 97.57 02/16/2024 15:32:09 -70.01, 123.49 97.60 3.16 42
9 02/19/2024 06:08:54 -70.40, -95.43 98.14 02/19/2024 06:07:42 -70.48, -96.10 98.01 26.70 72
10 02/19/2024 06:58:24 70.13, 71.82 81.59 02/19/2024 06:58:21 70.12, 71.79 81.59 1.89 3
11 02/19/2024 07:47:54 -70.02,-120.70 98.53 02/19/2024 07:49:03 -70.02,-120.75 98.53 1.92 69
12 02/21/2024 22:25:23 -70.18, 20.15 99.31 02/21/2024 22:24:29 -70.19, 20.14 99.29 0.35 54
13 02/21/2024 23:14:50 70.07,-172.36 80.58 02/21/2024 23:15:13 70.08,-172.39 80.59 1.44 23



Historial Predications of SNOs between LANDSAT-8 and NPP
